Wind_Speed
61 61 61 62 62 63 64 63 62 60 60 59 58 58 57 57 56 56 56 56 56 55 55 56 58 59 59 59 59 59 58 58 57 56 56 55 53 52 51 53 53 52 52 51 46 41 40 43 46 47 45 43 42 41 40 41 43 43 42 41 40 39 39 38 36 35 35 35 36 38 41 44 45 43 39 37 37 35 35 36 36 35 34 33 32
62 62 63 63 63 64 65 65 64 62 62 61 59 58 57 57 56 56 56 56 57 56 56 56 57 58 59 59 59 59 58 58 57 57 56 55 54 52 51 52 52 51 51 50 45 39 41 44 46 48 46 45 44 43 41 40 41 42 42 43 43 41 40 38 35 33 33 33 33 34 38 42 45 44 41 39 38 36 36 37 37 35 34 33 32
63 63 62 62 63 64 66 66 66 64 63 62 60 59 58 57 56 56 56 56 56 57 57 57 57 57 58 59 59 59 59 58 58 57 56 56 55 53 52 52 51 50 50 49 44 39 43 46 46 46 46 45 44 42 41 41 40 40 40 42 43 42 41 39 35 33 33 32 31 31 33 38 43 43 40 39 38 37 38 38 36 35 34 33 32
63 63 63 63 64 65 66 66 66 65 63 62 61 60 58 57 56 56 56 56 56 56 57 57 57 57 58 58 59 60 59 59 58 57 56 56 55 54 52 51 50 49 49 48 42 38 45 47 47 47 45 44 43 42 43 43 41 41 42 44 45 43 40 38 36 35 36 35 33 32 32 35 40 42 41 39 38 39 39 38 35 34 33 33 33
63 64 64 64 64 64 64 65 66 65 64 62 60 59 58 57 56 56 57 57 56 56 57 57 57 57 57 58 59 60 60 60 59 58 57 56 56 54 52 51 50 48 47 46 41 39 48 50 51 50 47 45 44 42 43 44 43 44 46 48 48 45 42 41 39 38 38 37 36 36 35 36 40 42 41 40 40 40 40 37 35 35 34 34 33
65 66 65 64 64 63 64 65 66 66 64 61 58 58 57 57 56 57 57 57 57 57 57 57 57 57 57 57 58 59 60 60 59 59 58 57 56 54 52 51 50 48 46 45 39 41 51 53 54 53 51 49 47 45 44 43 44 47 49 51 50 47 44 44 43 41 40 38 38 39 39 39 40 42 43 42 41 41 40 38 37 36 35 34 33
68 68 67 66 66 66 66 66 65 65 63 61 59 58 57 57 56 56 57 57 58 58 57 57 57 57 57 57 57 58 59 60 60 59 59 57 56 54 53 51 50 48 46 44 39 43 53 55 56 55 54 53 51 48 47 46 47 49 50 50 50 48 46 46 46 44 41 39 39 38 38 39 41 43 44 43 42 43 42 40 38 36 35 33 32
68 68 68 68 67 67 66 65 65 64 64 63 62 60 59 57 57 57 57 58 58 58 58 58 57 57 57 57 57 58 58 59 60 60 59 58 56 54 53 51 50 48 45 43 40 45 55 56 56 56 55 55 54 51 49 48 49 50 49 49 51 50 49 48 48 46 44 42 41 39 39 39 40 42 44 44 44 45 44 41 38 37 34 32 33
66 66 67 67 67 66 65 65 65 65 65 65 64 63 61 59 58 58 58 58 58 58 58 58 58 58 58 58 57 58 58 58 59 59 59 58 56 54 52 52 50 48 45 43 41 46 57 58 58 58 56 56 56 54 51 49 50 51 51 51 52 51 50 49 46 45 45 44 43 42 42 42 41 40 43 46 45 45 43 41 39 39 36 33 34
64 64 64 65 65 65 65 65 65 66 66 66 65 64 63 61 60 59 58 58 58 58 59 59 58 58 58 58 58 58 58 58 58 58 59 58 56 54 52 51 51 48 46 44 42 46 57 61 60 60 59 58 58 57 54 52 52 53 53 53 52 52 52 49 45 44 46 46 46 45 44 44 43 41 42 44 44 44 44 43 42 41 37 35 36
62 62 63 63 64 65 66 66 66 66 66 66 65 64 63 62 61 60 59 59 59 59 59 59 59 59 59 59 58 58 58 59 59 58 58 58 57 55 53 51 51 50 47 45 43 46 57 62 62 62 61 60 59 59 57 55 55 55 55 54 53 53 51 48 45 45 48 48 47 46 45 46 46 44 44 42 43 45 46 45 44 42 39 38 39
61 61 62 63 64 65 65 66 66 66 66 65 65 64 64 63 62 61 60 60 60 60 60 60 60 59 59 59 59 59 59 59 59 59 59 58 57 56 54 53 51 50 49 47 45 47 55 63 65 65 64 62 60 60 59 58 57 57 57 56 54 53 51 48 47 48 49 50 48 46 45 46 47 48 48 46 44 46 47 47 46 44 42 41 41
60 60 61 62 63 64 64 65 65 66 66 66 65 65 64 63 63 62 62 62 61 61 61 61 61 61 61 61 61 60 60 60 60 60 60 59 58 57 55 54 52 52 51 49 47 47 53 62 67 68 67 65 63 62 61 60 59 59 59 58 56 55 52 51 52 52 51 50 52 53 53 51 49 50 51 49 47 48 49 50 49 46 45 46 45
59 60 61 62 63 63 64 64 65 66 66 66 66 65 65 64 64 64 64 64 63 63 63 63 63 63 63 63 62 62 62 62 62 62 61 61 60 59 57 56 54 53 52 51 50 49 52 60 67 70 70 69 67 65 63 62 61 60 59 59 58 57 56 56 56 57 54 50 50 54 58 57 54 53 51 50 50 51 52 52 52 49 49 51 49
59 60 61 62 63 63 64 65 66 67 67 66 66 65 65 65 65 66 66 66 66 65 65 65 65 65 65 65 65 64 64 64 64 63 63 63 62 61 60 58 56 55 55 54 52 51 52 58 66 71 72 72 71 69 66 64 63 61 60 60 60 59 60 60 59 59 59 56 53 52 54 56 57 55 53 52 52 52 53 54 56 54 53 55 53
59 60 61 62 63 64 65 66 67 67 67 67 67 67 67 67 67 67 67 68 68 68 68 68 67 67 67 68 68 68 67 67 66 66 66 65 64 63 62 61 59 58 57 56 55 54 53 56 63 71 74 74 74 73 70 68 66 65 63 62 62 62 63 64 64 62 62 62 61 58 56 54 55 56 56 56 54 53 53 56 59 59 56 57 56
60 61 63 64 64 65 66 67 68 68 68 68 68 68 68 68 69 69 69 70 70 71 71 71 71 70 70 71 71 71 71 70 70 69 69 68 67 66 65 63 62 61 59 59 58 57 56 56 61 69 74 76 76 76 75 72 71 70 68 66 65 65 67 68 68 67 67 67 67 65 62 59 57 57 58 58 57 55 55 56 60 62 60 60 59
62 63 64 65 66 67 68 68 68 69 69 69 69 69 70 70 71 71 71 72 72 73 74 74 74 74 74 74 75 75 75 74 74 73 72 71 71 70 68 66 65 64 63 61 60 60 59 58 60 66 73 76 77 78 78 76 74 73 71 69 67 68 70 71 71 70 71 71 71 70 68 65 62 61 60 60 59 58 57 58 61 64 64 64 64
63 64 65 67 67 68 68 69 69 69 70 70 71 71 72 72 73 73 74 74 75 76 76 76 77 77 77 77 78 78 78 78 78 77 77 75 74 73 72 70 68 67 66 65 63 63 62 61 61 64 71 76 78 78 79 78 77 75 73 71 70 70 71 73 73 72 72 72 70 69 67 65 64 64 63 63 64 63 62 62 65 66 66 67 68
64 65 67 68 68 69 69 69 70 70 71 72 72 73 74 75 76 76 76 77 77 78 78 78 78 78 78 78 79 80 80 80 80 80 80 79 78 76 75 74 72 70 69 68 67 66 65 65 64 64 69 75 79 79 80 80 79 78 76 73 72 72 73 73 74 74 73 72 70 68 65 65 67 67 67 69 70 69 67 67 68 68 67 67 67
66 67 68 68 69 69 70 70 71 72 73 73 74 75 76 77 78 78 79 79 79 79 80 79 79 79 78 78 78 79 80 80 80 79 80 80 80 79 77 76 75 73 72 70 70 69 68 68 68 67 69 74 79 80 81 82 82 81 79 76 74 74 75 75 76 75 74 72 70 69 67 68 70 69 70 72 73 71 69 69 70 69 66 65 64
67 67 67 68 69 69 70 71 72 73 74 75 77 78 79 80 80 80 80 80 80 80 80 79 78 77 76 75 75 75 76 77 78 77 77 78 78 79 78 78 77 75 74 72 72 71 71 71 71 70 70 73 78 81 82 83 84 83 82 80 78 77 77 77 77 76 75 73 70 69 69 70 71 71 70 71 71 70 70 71 72 71 68 66 65
66 67 67 67 68 69 71 72 73 75 76 77 79 79 80 81 81 81 80 80 79 79 77 76 75 74 73 72 71 70 70 71 73 74 74 74 74 75 76 76 76 76 75 74 73 73 73 73 74 74 73 74 77 81 83 84 84 85 85 84 82 80 79 79 79 78 78 76 73 71 70 69 70 71 72 71 70 71 71 73 74 74 71 69 68
66 66 67 68 69 70 72 74 75 76 78 79 80 80 80 80 80 79 78 77 76 75 73 72 71 70 69 68 67 66 65 65 66 68 69 70 70 70 72 73 74 75 75 75 74 74 74 75 76 76 76 76 77 81 84 85 85 86 86 86 86 84 83 81 81 82 81 80 78 76 74 72 71 72 73 72 72 72 73 74 74 74 73 72 71
65 66 68 69 71 72 74 76 77 79 80 80 80 80 79 78 77 76 74 73 72 70 69 67 66 65 64 64 64 63 63 62 61 62 63 65 65 65 67 69 70 71 73 74 74 74 75 76 77 78 79 79 79 80 84 86 87 87 87 88 88 88 87 85 84 84 84 84 82 81 79 77 75 74 74 74 74 74 74 74 75 75 75 74 73
66 68 69 71 73 74 76 78 79 80 80 80 79 78 76 75 74 73 71 70 68 67 65 63 62 62 61 60 60 60 60 60 59 58 58 59 60 61 62 64 66 68 69 71 73 74 75 76 78 79 80 81 82 82 83 86 88 89 88 89 90 90 89 88 87 86 86 86 86 84 83 81 80 78 77 77 76 76 76 76 76 77 77 77 76
68 69 71 73 75 77 78 79 79 79 79 78 76 74 73 71 70 69 67 66 65 63 62 61 60 59 59 58 58 57 57 57 58 57 56 54 55 58 58 58 61 64 66 67 70 73 74 76 78 80 82 83 84 84 85 86 89 90 90 90 91 91 91 90 89 89 88 88 87 86 86 85 84 82 81 80 80 79 79 78 79 80 80 80 79
70 71 73 75 77 78 78 78 77 76 75 74 72 71 69 67 66 64 63 63 62 61 60 59 58 57 56 56 56 55 54 54 54 55 55 53 51 54 55 54 55 59 62 64 66 70 73 75 77 79 82 84 86 87 87 87 89 91 92 92 92 92 93 92 92 91 90 89 89 88 87 87 86 85 84 84 83 83 82 82 83 83 82 82 81
72 73 75 76 76 77 76 75 73 72 71 70 68 66 64 62 61 61 61 60 60 59 58 56 55 53 52 51 51 51 51 51 52 52 52 51 49 50 53 52 51 53 58 61 63 66 70 73 76 79 81 84 86 88 89 90 90 91 93 94 94 93 94 95 94 93 92 91 91 91 90 89 88 87 87 86 86 87 88 89 88 87 85 83 81
74 74 75 75 74 73 71 70 69 68 66 64 62 60 59 59 58 58 58 58 57 56 55 53 52 51 49 48 47 47 47 47 49 49 49 49 48 47 49 51 49 49 53 57 60 62 66 70 74 77 80 83 86 89 91 92 92 93 93 95 96 95 95 96 97 96 95 93 92 92 93 92 91 90 89 89 89 89 91 92 91 90 87 86 84
74 74 72 71 69 68 67 65 63 61 59 58 57 57 56 56 56 55 55 54 54 53 52 50 49 49 48 47 46 46 45 44 44 46 46 46 46 44 45 48 48 47 48 53 57 59 62 66 70 75 79 82 85 88 91 93 94 95 95 95 97 97 97 97 98 99 98 96 94 93 94 94 95 95 94 92 92 91 91 91 90 89 88 86 85
71 70 68 67 65 63 60 58 56 55 54 54 54 54 54 53 53 53 52 52 52 52 50 50 49 48 48 47 46 46 45 44 42 42 43 43 43 42 41 44 46 46 46 48 53 56 59 62 66 71 76 80 83 87 90 93 95 96 97 97 98 99 99 100 100 100 100 100 98 95 94 95 96 96 96 95 94 94 93 93 91 90 89 87 86
66 65 63 61 58 55 53 52 51 51 51 51 51 51 51 51 51 51 51 51 52 51 50 50 49 48 47 47 45 44 45 44 43 41 40 40 40 40 39 39 42 44 44 45 49 53 56 59 63 67 72 77 81 85 88 92 95 97 98 99 99 100 101 102 102 101 102 102 102 100 98 98 97 96 96 95 95 95 94 94 93 92 91 90 89
60 58 55 52 50 48 48 48 49 49 49 49 49 49 50 50 51 51 51 51 51 50 50 50 50 48 46 46 45 44 43 44 43 41 40 39 38 38 37 37 38 41 42 42 44 49 53 56 60 64 68 73 78 82 86 90 94 97 99 100 101 101 101 103 104 104 103 104 104 103 103 102 101 99 98 97 96 95 94 94 93 93 92 91 91
52 49 47 45 44 45 45 46 46 47 47 47 48 49 50 50 51 51 51 51 51 50 50 49 50 49 47 46 45 44 41 40 41 40 39 38 37 36 36 35 35 37 39 40 41 45 50 53 57 60 65 69 74 79 83 86 90 94 98 100 101 102 102 103 104 105 106 106 106 106 106 105 105 103 102 101 99 98 97 96 96 96 95 95 94
43 42 41 41 42 42 43 43 44 45 46 46 48 49 49 49 50 50 51 51 51 51 51 50 50 49 48 45 44 43 40 38 37 38 37 37 36 34 34 34 33 34 36 38 39 42 46 50 53 57 61 65 69 74 79 83 87 91 95 98 101 102 102 103 104 105 107 108 108 108 108 107 107 106 105 105 103 102 101 100 100 99 99 99 99
38 38 39 40 40 40 41 41 42 43 44 46 47 48 49 49 50 51 52 52 53 53 52 51 50 49 47 45 43 42 41 39 36 36 35 35 35 34 32 31 32 32 33 35 37 40 43 47 50 54 58 62 66 70 75 80 84 88 91 95 98 101 102 103 103 104 106 108 110 110 110 110 109 109 108 107 106 105 104 104 103 102 102 101 101
36 36 37 38 39 39 40 41 41 42 44 45 46 48 48 49 49 50 52 52 53 53 53 51 50 48 47 45 43 41 41 39 37 35 33 33 32 32 32 31 30 30 31 32 34 37 40 44 47 51 55 59 63 67 71 76 80 84 88 91 95 98 100 102 103 104 105 107 109 111 112 112 112 112 111 110 109 108 107 106 106 105 104 104 103
34 35 35 37 38 38 39 40 40 41 43 44 45 47 48 48 49 50 51 51 52 52 52 51 50 48 47 46 44 41 40 39 38 35 33 31 30 30 30 30 29 28 29 30 32 34 37 41 44 48 51 55 59 63 67 71 75 80 84 88 91 94 97 100 101 103 104 106 108 110 112 113 113 113 113 113 112 111 110 109 109 108 107 106 105
33 33 34 35 37 38 38 39 40 40 41 42 43 44 46 48 48 49 49 50 51 51 51 51 51 50 48 46 44 42 40 39 38 36 34 31 30 28 28 28 28 27 27 28 30 32 34 37 41 45 48 52 56 60 63 67 71 75 80 84 87 91 94 97 99 101 102 104 106 108 110 112 113 113 113 113 113 114 113 113 112 111 110 109 108
31 32 33 34 35 36 37 38 39 40 41 41 42 43 44 46 47 48 49 49 50 50 50 50 51 50 48 46 44 43 41 39 38 37 35 33 30 28 27 26 26 26 26 26 28 30 31 34 37 41 45 48 52 56 60 63 67 71 75 79 83 87 91 94 96 98 100 102 104 106 108 110 112 113 113 113 113 113 113 114 114 113 113 112 111
31 31 32 33 34 35 35 37 38 39 40 41 42 43 44 45 46 47 48 49 49 49 50 50 49 49 49 46 44 43 42 39 37 36 36 35 32 29 27 25 25 25 25 25 26 27 29 31 34 37 41 45 48 52 56 60 63 67 70 74 79 83 87 91 94 96 98 100 101 103 105 107 110 112 113 113 113 113 113 112 112 112 112 112 112
30 31 32 32 33 33 34 35 37 38 39 40 41 42 43 44 45 46 47 48 49 49 49 49 49 48 48 47 45 43 42 41 38 36 35 35 33 31 28 26 24 23 24 24 24 25 27 29 32 34 37 41 45 48 52 56 60 63 67 70 74 78 82 86 90 93 96 98 100 101 103 104 106 109 111 113 114 114 114 114 113 112 112 111 111
30 30 31 31 31 33 34 35 36 38 38 39 40 41 42 43 45 45 46 47 48 49 49 49 49 48 47 47 46 44 42 41 40 38 36 35 33 32 30 27 25 23 22 22 23 24 25 27 29 32 34 37 40 44 48 52 56 60 63 66 70 73 77 81 85 89 92 95 97 99 101 102 104 106 107 109 111 113 114 115 115 115 114 114 113
29 30 30 30 31 32 33 34 36 37 38 38 39 40 41 42 43 44 45 46 48 48 49 49 49 48 47 47 46 45 43 42 42 41 39 37 34 33 31 29 26 24 22 21 21 22 23 24 26 29 31 34 36 40 44 48 52 55 59 62 66 69 72 76 80 83 87 90 93 96 99 100 102 104 105 107 108 109 111 112 114 115 116 116 116
28 29 29 29 30 31 33 34 35 37 38 38 39 39 40 40 42 43 45 46 47 48 48 48 48 47 47 47 46 45 44 43 42 41 40 39 37 34 31 29 28 26 24 22 20 20 22 23 24 26 28 31 34 36 40 43 47 51 55 58 62 65 68 72 75 78 81 85 88 91 94 97 99 101 103 105 106 107 108 109 110 111 113 114 115
28 28 29 30 30 31 33 34 35 36 37 38 38 39 40 41 41 42 44 45 46 47 47 47 47 47 46 46 46 45 44 43 42 42 41 40 38 36 33 30 28 27 26 24 22 20 20 21 22 24 25 28 31 33 36 39 43 46 50 54 57 60 64 67 70 73 76 79 82 86 89 92 94 97 99 102 104 105 106 108 108 109 110 111 112
27 27 28 30 31 32 33 34 35 36 37 37 38 39 40 41 42 43 44 44 45 47 47 47 47 46 45 45 45 45 44 43 43 42 41 41 40 38 35 32 29 27 26 26 25 23 21 20 21 22 23 25 27 30 33 36 39 42 45 49 52 56 59 62 65 68 71 74 77 80 83 86 89 91 94 96 99 101 103 104 106 107 108 109 110
26 27 28 29 31 32 33 34 35 36 37 38 39 39 40 41 42 43 44 44 45 46 47 47 47 47 46 45 45 45 44 44 44 43 42 41 40 40 38 36 33 30 28 27 26 25 23 22 21 21 21 22 24 27 29 32 35 38 41 44 47 51 54 57 60 63 66 69 72 75 78 80 82 85 88 90 93 95 97 99 101 103 104 106 107
26 27 28 29 31 32 33 34 35 36 38 39 40 41 42 42 42 43 43 44 45 46 47 48 48 48 47 46 45 45 45 44 44 43 43 41 40 39 39 38 37 34 32 30 28 27 25 24 23 22 21 22 22 24 26 28 31 34 37 40 43 46 49 52 55 58 61 64 67 70 73 75 78 80 82 84 86 89 91 93 96 98 99 101 102
26 27 28 29 30 32 33 34 35 36 38 39 41 42 43 44 45 45 45 45 46 46 47 48 49 48 47 47 46 45 45 44 43 43 43 42 40 39 38 38 38 37 35 34 31 30 28 26 24 23 22 22 22 23 24 25 28 30 33 36 39 42 45 47 50 53 56 59 62 65 68 70 73 75 77 79 81 83 85 87 90 92 94 95 96
Wind_Direction
278 279 279 280 280 281 282 282 283 282 282 281 280 279 278 277 277 277 277 276 276 275 274 273 271 271 271 271 272 274 275 276 277 279 280 282 283 285 288 290 291 293 294 294 292 275 251 238 234 232 231 230 232 234 237 241 241 241 243 248 252 256 260 261 262 264 263 260 258 255 253 254 255 254 254 256 259 261 262 265 270 276 282 287 290
278 278 279 279 280 281 282 283 283 283 282 281 280 280 279 278 277 276 276 276 276 276 275 274 272 272 271 271 271 272 274 275 276 278 279 280 282 284 286 288 290 292 292 293 290 269 242 233 232 232 232 233 235 236 237 240 244 245 247 249 251 253 256 259 262 264 263 262 263 260 255 252 251 252 253 254 256 257 258 261 267 274 279 284 287
276 277 278 279 280 282 283 283 283 283 282 281 281 280 279 278 277 276 276 276 276 276 275 275 274 273 272 271 271 271 272 274 275 276 277 279 281 282 284 286 288 290 290 292 288 262 234 228 231 232 233 235 234 233 234 238 243 246 248 249 250 251 254 259 263 263 262 263 266 266 261 255 252 252 253 253 253 253 255 259 265 272 276 280 283
276 277 278 280 281 282 282 283 283 283 281 280 280 280 279 278 277 276 276 276 276 275 275 275 274 274 273 272 271 271 272 272 273 274 275 277 279 280 282 284 286 288 288 290 284 254 229 226 230 230 231 232 231 231 232 235 237 240 242 244 246 247 250 254 257 259 262 266 267 267 269 265 258 254 252 252 252 252 255 259 263 269 273 277 280
276 277 279 280 281 281 281 281 282 282 281 280 280 280 280 279 278 277 276 276 276 276 275 275 274 274 273 272 271 271 271 271 272 273 274 275 277 278 280 282 284 286 286 288 280 247 226 225 229 230 229 229 229 230 232 235 238 240 241 242 244 246 248 249 250 253 258 262 265 266 269 269 263 257 252 250 251 253 255 258 262 266 270 275 277
276 278 279 279 278 278 279 280 281 282 283 283 282 281 281 280 279 278 277 277 276 276 276 275 274 274 273 272 271 270 270 270 271 272 272 274 275 276 278 280 282 283 283 285 275 243 226 226 229 230 229 228 227 228 230 234 237 240 242 244 246 248 249 249 250 252 255 258 261 264 267 267 263 258 252 249 252 254 254 256 260 265 269 273 275
277 278 278 278 278 278 279 280 281 283 284 285 285 284 283 282 280 278 277 277 277 276 276 275 275 274 273 272 271 270 270 270 270 271 271 272 273 274 276 277 279 281 280 281 271 240 226 228 229 229 229 228 227 227 229 232 235 239 241 243 246 248 249 251 251 253 256 259 260 263 266 266 264 258 252 250 252 253 253 256 261 265 268 271 272
276 276 276 277 278 279 279 280 281 283 284 285 286 285 285 283 280 278 277 277 277 277 276 276 275 274 273 273 272 271 270 270 270 270 270 271 272 273 274 274 276 277 276 277 267 239 227 228 229 229 229 229 227 227 229 231 234 238 239 239 242 245 247 249 251 254 258 261 262 263 265 266 264 259 253 250 251 252 253 258 263 264 265 267 270
275 275 276 276 277 278 279 279 280 282 283 284 285 286 285 283 280 278 277 277 277 276 276 276 275 274 273 273 272 271 271 270 270 270 270 271 271 271 271 272 273 274 272 273 265 240 227 229 231 229 229 229 228 227 228 230 233 236 237 238 241 244 245 246 250 256 260 263 264 265 265 264 262 260 255 251 251 253 255 259 262 262 261 265 268
274 274 275 276 277 278 278 279 280 281 282 284 285 285 284 282 280 279 277 277 277 276 276 276 275 274 273 273 272 271 271 270 269 269 269 270 270 269 269 269 270 271 269 268 264 243 229 229 232 230 229 229 229 228 228 229 232 235 237 240 244 246 246 246 249 252 254 257 258 259 261 264 264 263 258 252 251 254 255 257 260 260 261 263 265
273 274 274 275 276 277 278 279 280 281 282 283 284 284 284 282 280 279 278 277 277 276 276 276 275 274 274 273 272 271 270 269 269 269 268 268 269 268 267 267 267 268 266 264 262 248 232 229 232 232 230 230 230 230 230 230 232 235 238 242 245 247 248 247 247 247 248 250 251 252 253 258 263 266 265 258 252 252 254 256 259 261 261 261 263
273 273 274 274 275 277 278 279 280 281 282 283 284 284 284 283 281 280 279 279 278 277 277 276 275 275 274 273 272 271 270 269 269 268 268 267 267 266 266 265 264 265 264 261 259 251 237 231 231 232 232 231 231 231 232 232 233 236 239 241 243 245 246 244 241 242 244 244 244 245 247 251 257 263 267 265 258 253 253 255 259 261 261 260 262
273 274 274 275 276 277 279 280 281 282 283 284 285 285 284 284 283 282 281 280 279 278 278 277 276 275 274 273 272 271 270 269 268 268 267 267 266 265 265 264 262 262 262 259 257 252 242 234 232 233 233 232 232 232 232 233 234 236 238 239 240 241 241 240 237 238 242 245 244 244 246 249 254 260 266 269 267 258 253 254 257 260 261 261 262
274 274 275 276 278 279 280 282 283 284 285 285 286 286 285 285 284 283 282 281 280 279 279 278 277 276 275 273 272 271 270 269 268 267 267 266 265 264 263 262 261 260 259 258 255 252 245 237 233 234 235 234 234 233 233 234 234 235 237 238 238 238 237 238 238 237 240 245 248 250 252 254 257 261 265 270 269 263 256 254 257 259 259 260 262
274 276 277 279 280 281 283 283 284 285 286 286 286 286 286 285 285 284 284 283 282 281 280 279 278 278 277 275 274 272 271 270 268 267 266 265 264 264 262 261 259 258 257 256 254 251 248 241 235 234 236 236 236 235 235 234 234 234 236 237 237 236 235 237 238 238 239 241 245 252 257 260 261 262 263 264 264 262 258 255 257 259 259 259 261
277 279 280 281 282 283 284 284 285 286 286 287 287 287 287 286 286 285 284 284 283 282 281 280 279 278 278 277 276 274 273 271 270 268 267 266 264 263 262 260 259 257 255 254 252 250 248 244 238 234 235 237 237 236 236 235 235 235 236 237 237 236 235 236 237 238 239 241 243 249 255 258 259 260 261 261 261 261 258 254 255 258 260 260 262
280 281 283 284 284 285 285 286 286 287 287 288 288 287 287 286 286 285 285 284 284 283 283 282 281 280 279 278 277 276 274 273 271 270 268 267 265 263 261 260 258 257 254 252 251 249 246 245 241 236 234 236 237 237 236 236 236 236 237 238 238 236 235 237 238 239 240 241 243 248 253 255 255 256 259 261 260 259 258 255 254 255 258 262 264
282 283 284 284 285 285 286 287 287 287 288 287 287 287 286 286 285 285 284 284 283 283 282 282 281 280 280 279 277 277 276 274 273 271 269 268 266 264 262 260 258 256 254 252 250 248 245 243 242 238 234 234 236 237 237 236 237 237 237 238 238 237 236 237 239 240 242 243 245 248 253 256 256 255 256 257 257 258 258 258 257 257 259 263 265
283 284 284 285 286 287 287 287 288 288 288 288 287 287 286 286 285 285 284 284 283 283 282 281 281 280 279 279 278 276 275 274 273 272 271 269 267 265 263 261 258 255 254 251 249 247 245 242 241 240 236 233 234 236 237 236 237 237 238 237 237 236 236 237 239 241 243 245 247 249 252 254 255 255 254 254 255 256 257 258 260 261 262 263 264
285 285 286 287 287 288 288 288 288 288 288 288 288 288 287 287 287 286 286 285 285 284 284 283 282 281 280 279 278 277 275 274 272 271 270 269 267 265 263 261 259 256 253 251 248 246 245 242 240 239 237 234 233 235 236 236 236 237 238 237 236 236 236 236 238 241 243 245 247 248 250 250 251 252 254 254 255 256 257 258 260 261 262 263 264
286 286 287 287 288 288 289 289 289 289 289 289 289 289 289 289 289 288 288 288 287 287 286 285 284 283 281 280 278 277 276 274 272 270 269 267 266 265 263 261 259 256 253 250 248 245 244 242 239 238 237 235 233 233 235 236 236 237 237 237 236 235 235 236 237 239 242 244 246 247 248 249 251 252 254 256 257 259 260 260 261 262 263 264 264
286 287 287 288 288 289 289 289 290 290 290 290 290 291 291 291 291 291 291 290 290 289 289 288 286 285 283 281 279 278 276 275 273 271 268 267 265 264 262 260 258 256 253 250 247 245 242 241 239 237 236 235 233 232 233 235 236 236 237 237 236 235 235 235 236 238 240 242 243 245 246 248 250 251 252 254 257 259 260 261 262 263 263 263 262
287 287 288 289 289 290 290 290 291 291 291 292 292 292 292 292 293 293 293 293 292 291 291 290 289 287 286 284 281 279 277 275 274 272 269 267 265 263 261 259 257 256 253 250 247 244 241 240 239 237 235 234 233 232 232 233 235 236 236 236 236 236 235 235 236 237 238 240 240 242 243 246 248 250 251 252 254 256 257 259 261 263 263 261 260
288 288 289 290 290 291 291 292 292 292 292 293 293 293 294 294 294 295 294 294 294 293 292 292 291 289 288 286 284 282 279 276 274 272 271 268 266 263 261 259 256 254 253 250 247 244 241 238 237 236 234 233 233 232 231 231 233 234 235 236 236 236 236 235 235 236 238 239 240 241 242 244 246 248 251 252 252 253 255 257 260 262 262 262 261
289 290 291 291 292 292 293 293 293 294 294 294 295 295 296 296 296 296 296 296 295 295 294 294 293 291 290 289 287 285 283 280 277 274 271 269 267 264 261 259 257 254 251 250 247 244 241 238 236 235 234 233 232 232 231 230 231 232 234 235 236 236 236 236 236 236 238 239 240 241 242 243 245 247 250 251 252 252 254 256 258 259 260 261 261
291 291 292 293 293 294 294 295 295 295 296 296 297 297 298 298 298 298 298 298 297 297 296 296 295 293 292 290 289 287 285 283 281 277 274 271 268 266 262 259 257 255 251 249 247 244 241 238 235 234 233 232 231 231 231 230 230 230 232 234 235 236 236 236 236 236 237 238 240 241 241 243 244 246 248 250 251 251 252 253 255 256 257 259 260
292 293 293 294 295 295 295 296 296 297 297 298 298 299 299 300 300 300 300 299 299 299 299 298 297 296 294 292 290 288 286 284 282 280 278 274 270 267 264 260 257 255 252 249 246 244 242 239 235 233 232 232 231 230 230 230 230 229 229 231 233 235 236 236 236 236 236 237 239 240 241 242 243 245 247 248 249 250 251 252 253 254 255 256 258
293 294 294 295 295 296 296 297 297 298 298 299 299 300 301 301 301 301 301 302 301 301 301 300 299 298 296 295 292 290 288 285 283 282 280 277 273 269 266 262 257 254 253 250 246 243 241 239 236 233 231 230 230 230 230 230 230 229 229 229 231 233 234 235 236 236 236 237 238 239 240 242 243 244 246 248 250 251 251 251 252 253 254 256 258
293 294 295 295 296 296 297 297 298 299 299 300 300 301 302 302 303 303 303 303 303 303 303 302 301 299 298 296 294 292 290 288 285 283 281 279 275 271 268 265 259 254 252 250 247 244 241 239 237 235 232 230 230 230 230 229 229 229 229 229 229 231 232 234 235 236 236 237 237 238 239 241 242 244 245 247 249 251 251 252 252 253 255 257 260
294 295 295 295 296 297 297 298 299 299 299 300 301 302 303 304 304 305 305 305 305 305 305 305 304 303 301 299 297 295 293 291 289 286 283 280 277 272 269 267 263 256 252 250 248 245 242 239 237 235 233 231 229 229 229 230 230 229 229 229 229 230 231 233 234 235 236 236 237 238 239 240 241 242 244 246 247 249 251 253 254 256 257 258 259
294 295 295 295 296 297 297 298 298 299 300 301 303 304 305 305 306 306 307 308 308 308 309 309 309 309 308 305 302 300 297 294 292 289 286 283 279 274 270 268 265 260 253 250 249 246 243 240 238 236 234 232 230 229 229 229 230 230 230 230 230 230 230 231 233 234 235 236 236 238 239 240 241 242 243 244 246 248 250 252 254 256 257 258 258
294 294 295 296 296 297 297 298 299 300 302 303 304 305 306 307 308 309 310 312 312 313 314 314 314 314 313 310 308 306 303 299 296 293 290 286 282 278 272 268 266 263 257 251 248 247 244 241 239 236 235 233 232 230 229 229 230 230 231 230 230 230 230 231 232 233 235 235 236 237 238 240 241 242 243 245 246 248 250 251 253 254 255 256 257
294 294 295 296 297 297 298 299 301 302 304 305 306 307 309 311 313 314 315 316 317 317 318 318 317 317 316 314 312 310 308 305 301 298 295 290 286 282 276 270 267 264 260 253 249 247 245 242 240 238 235 234 233 232 230 229 229 230 231 231 231 231 231 231 232 232 234 235 236 236 237 239 241 242 243 244 246 248 249 251 252 253 254 255 256
293 293 294 295 296 298 300 301 303 304 306 308 310 312 314 316 317 317 318 319 319 320 320 321 320 320 320 318 316 314 312 309 305 302 299 295 291 286 280 274 268 265 262 256 250 247 245 243 240 239 237 235 234 233 232 231 230 230 231 232 232 232 232 232 232 232 233 235 236 236 237 238 240 241 242 243 245 246 248 250 252 253 254 255 256
292 293 294 295 297 299 301 303 305 307 310 312 315 317 318 319 319 320 321 321 322 322 323 323 323 323 322 321 319 316 314 311 308 305 302 298 294 290 284 278 272 266 263 259 252 247 245 243 241 239 238 236 235 234 233 232 231 231 231 232 233 233 233 233 233 233 233 234 235 236 237 238 240 241 242 243 244 245 247 249 251 252 254 255 255
291 293 295 297 299 301 303 305 308 311 314 316 318 318 319 320 322 323 324 324 325 325 325 325 325 324 323 322 320 318 317 315 312 309 306 302 298 293 288 282 276 269 264 260 255 249 246 244 242 240 239 237 236 235 234 234 233 232 232 232 233 234 234 234 234 234 234 234 235 236 237 238 239 241 242 243 244 245 246 248 250 252 253 255 256
292 294 296 298 301 304 306 309 312 314 317 318 319 320 322 324 325 325 326 326 327 326 326 326 325 324 324 324 324 323 322 320 318 314 310 306 302 297 292 286 280 273 267 261 256 252 248 245 242 241 239 238 237 236 235 235 234 234 233 233 233 234 235 235 234 234 234 235 235 236 237 238 239 240 241 243 244 245 246 248 249 251 252 254 256
294 296 298 301 304 307 309 312 315 317 319 320 322 323 324 325 326 327 327 327 327 326 325 325 326 327 327 327 327 327 325 323 321 318 314 309 305 301 296 291 284 277 270 264 258 253 249 246 244 241 240 239 238 237 237 236 236 235 235 234 234 235 235 236 236 235 235 235 236 236 237 238 239 240 241 242 243 245 246 247 249 250 251 253 255
295 298 301 304 307 309 312 315 317 319 321 322 324 324 325 326 327 327 327 326 326 326 326 327 328 329 330 329 329 329 328 327 325 322 319 315 309 304 300 295 289 282 275 268 262 256 251 248 245 243 241 240 239 239 238 238 237 237 237 236 236 236 236 237 237 237 237 236 236 237 238 239 240 241 241 242 243 244 246 247 248 250 251 252 254
296 299 303 306 308 311 314 317 319 321 322 323 324 325 326 326 327 327 326 327 327 328 329 329 330 330 331 331 331 331 331 331 329 327 324 320 316 310 304 299 294 288 280 272 266 260 254 249 246 245 243 241 240 240 240 239 238 238 238 238 237 237 237 237 238 238 238 238 238 238 238 239 240 241 242 243 244 245 246 247 248 250 251 252 253
297 301 304 307 310 313 316 318 320 321 322 323 325 326 326 326 326 327 328 328 329 330 331 331 331 330 331 332 333 333 333 334 333 331 328 325 322 317 312 305 299 293 286 278 271 264 259 253 248 246 244 242 241 240 240 240 240 239 239 239 238 238 238 238 239 239 240 240 240 239 239 239 240 241 242 244 245 246 247 248 249 250 252 253 254
299 302 305 308 311 314 317 319 320 321 323 324 325 326 327 327 327 328 329 330 331 332 332 332 332 332 332 333 334 334 334 335 336 335 333 329 326 322 318 313 306 299 292 284 277 270 263 258 252 248 246 244 242 241 241 241 241 240 240 240 240 239 239 240 240 240 240 241 241 241 241 241 241 241 242 243 245 246 247 249 250 251 252 253 254
300 303 306 310 313 315 317 318 320 321 323 325 325 326 327 328 328 330 331 331 332 332 332 332 333 333 333 333 335 335 335 335 336 338 337 334 330 327 323 319 313 306 299 291 283 275 268 263 258 253 249 246 244 243 242 241 241 241 241 241 241 241 241 241 241 241 241 242 242 243 243 243 243 243 244 244 245 246 247 248 249 250 252 253 254
301 304 308 311 314 315 317 319 320 321 323 324 326 326 328 329 329 331 332 333 333 333 333 333 334 334 334 335 335 336 336 336 337 338 339 338 335 331 328 324 320 314 307 298 290 281 273 267 262 258 253 249 246 244 243 242 242 242 242 242 242 242 242 242 242 242 243 243 243 244 244 244 245 245 245 246 246 247 247 248 249 250 251 252 253
302 305 309 312 313 314 316 318 320 321 322 324 326 327 328 329 330 331 333 333 333 333 334 334 334 335 335 335 336 336 337 337 338 338 339 339 338 335 332 329 325 321 315 308 299 290 281 273 267 262 259 255 250 247 245 244 243 243 242 242 242 242 243 243 243 243 244 244 244 245 245 245 246 246 247 247 248 248 249 250 250 251 252 253 253
303 307 309 311 313 314 316 318 319 320 322 324 326 327 328 330 331 332 333 333 333 334 334 334 334 335 335 336 336 337 338 338 338 338 339 339 339 338 336 333 330 327 322 316 309 300 290 281 273 267 262 259 256 252 249 247 245 244 244 243 243 243 243 243 244 244 245 245 246 246 246 247 247 247 248 248 249 249 250 251 252 252 253 254 254
305 308 309 311 313 315 316 317 318 319 321 323 326 327 329 330 332 333 333 334 334 334 334 335 335 335 336 336 336 337 338 338 338 338 339 339 339 339 337 336 335 333 329 323 317 310 301 291 282 274 268 263 259 257 254 251 248 247 246 245 244 244 244 244 244 245 245 245 246 247 247 248 248 249 249 250 250 251 251 252 252 253 254 255 255
305 307 308 310 312 314 315 316 317 319 321 323 325 327 329 331 332 333 334 334 334 334 334 335 335 336 336 337 337 337 337 338 338 338 339 339 339 338 338 338 337 337 335 331 325 318 312 302 292 283 276 269 265 261 258 255 253 250 249 247 246 246 246 245 245 245 245 246 246 247 248 248 249 249 250 251 251 252 253 253 254 254 255 255 256
304 306 308 309 311 313 315 316 318 320 322 324 326 328 329 331 332 333 333 334 335 335 335 336 336 336 337 337 337 337 338 338 339 338 338 338 339 339 339 339 339 338 338 336 331 326 320 313 305 296 286 278 272 267 263 259 257 254 252 251 249 248 247 247 247 247 246 246 246 247 248 248 249 250 250 251 252 252 253 254 255 255 256 256 257
304 306 308 309 311 313 315 317 318 320 322 324 326 327 329 330 331 332 333 334 336 336 336 337 337 337 337 337 337 337 338 339 339 338 337 337 339 340 340 340 340 339 338 337 335 331 326 321 315 307 298 290 281 275 269 265 261 259 256 255 253 251 250 249 249 248 248 248 247 247 248 248 249 249 250 251 252 252 253 254 255 255 256 257 257
304 306 308 310 311 313 315 316 318 320 322 324 325 326 328 329 330 332 333 335 337 337 337 337 337 337 337 337 337 337 337 337 338 338 337 336 337 339 340 340 340 339 338 337 335 334 331 326 321 314 308 300 292 284 278 272 267 264 261 259 257 255 254 253 252 251 250 250 249 249 249 249 250 250 250 251 251 252 253 253 254 255 256 257 258
Height
10636 10635 10634 10633 10632 10630 10628 10627 10626 10626 10625 10623 10622 10621 10620 10620 10619 10619 10618 10617 10617 10616 10616 10615 10615 10614 10614 10613 10612 10611 10610 10609 10609 10608 10608 10608 10607 10606 10605 10603 10602 10600 10597 10596 10594 10594 10595 10597 10599 10601 10603 10606 10608 10609 10610 10610 10611 10613 10615 10616 10617 10619 10620 10621 10622 10623 10624 10624 10625 10626 10626 10625 10625 10627 10630 10631 10631 10632 10633 10634 10634 10634 10634 10634 10633
10628 10627 10626 10625 10624 10623 10621 10619 10619 10619 10618 10616 10615 10614 10614 10613 10613 10612 10611 10611 10610 10609 10609 10608 10607 10607 10607 10606 10604 10604 10603 10602 10601 10601 10600 10600 10600 10600 10599 10597 10595 10594 10592 10590 10588 10588 10589 10592 10594 10596 10598 10600 10602 10604 10605 10605 10606 10607 10609 10611 10612 10614 10615 10616 10618 10619 10619 10620 10621 10621 10621 10620 10619 10621 10624 10626 10626 10627 10628 10628 10629 10630 10630 10630 10629
10621 10620 10619 10618 10617 10616 10614 10612 10611 10611 10610 10609 10608 10607 10607 10606 10606 10605 10604 10604 10603 10602 10601 10600 10600 10599 10599 10598 10597 10596 10595 10595 10594 10594 10593 10593 10592 10592 10592 10591 10589 10588 10586 10584 10583 10582 10584 10587 10589 10590 10592 10594 10596 10598 10599 10599 10601 10602 10604 10605 10607 10608 10610 10611 10613 10613 10613 10615 10616 10616 10616 10615 10614 10616 10620 10622 10622 10622 10623 10623 10625 10625 10626 10625 10625
10613 10612 10612 10611 10610 10609 10607 10605 10603 10602 10602 10602 10601 10600 10600 10599 10599 10598 10597 10596 10596 10595 10594 10593 10592 10592 10591 10591 10589 10588 10588 10587 10586 10586 10586 10585 10585 10585 10585 10584 10583 10582 10580 10579 10578 10577 10579 10582 10583 10584 10586 10587 10589 10591 10592 10593 10595 10597 10598 10599 10601 10603 10605 10606 10607 10608 10608 10609 10610 10610 10611 10611 10610 10612 10615 10617 10617 10617 10618 10619 10620 10621 10621 10621 10621
10606 10605 10605 10604 10603 10602 10600 10598 10595 10594 10594 10594 10594 10593 10593 10592 10591 10590 10590 10588 10588 10587 10586 10585 10585 10584 10584 10583 10582 10580 10580 10579 10578 10578 10578 10578 10578 10578 10578 10577 10576 10576 10574 10573 10572 10572 10574 10575 10576 10578 10579 10581 10583 10585 10586 10588 10590 10592 10592 10593 10595 10598 10599 10600 10602 10603 10603 10603 10604 10605 10606 10606 10606 10607 10611 10612 10612 10613 10613 10614 10614 10615 10616 10616 10616
10599 10598 10598 10597 10596 10594 10592 10590 10588 10587 10586 10586 10586 10586 10585 10584 10584 10583 10582 10580 10579 10578 10578 10577 10577 10576 10576 10575 10574 10573 10572 10571 10570 10570 10570 10571 10571 10571 10571 10570 10570 10569 10568 10567 10566 10566 10568 10569 10570 10572 10573 10574 10576 10579 10580 10583 10585 10585 10585 10586 10589 10592 10593 10594 10597 10598 10598 10598 10599 10599 10600 10600 10600 10602 10605 10607 10607 10608 10608 10608 10609 10611 10611 10612 10611
10591 10591 10590 10589 10588 10586 10584 10582 10581 10580 10579 10578 10578 10578 10577 10576 10576 10575 10573 10572 10571 10570 10570 10569 10569 10568 10568 10567 10566 10565 10564 10563 10562 10562 10562 10562 10563 10564 10564 10563 10563 10562 10561 10561 10561 10561 10561 10562 10563 10565 10566 10568 10570 10572 10574 10577 10579 10579 10579 10581 10583 10586 10587 10588 10591 10591 10591 10592 10592 10593 10594 10594 10594 10595 10599 10602 10602 10602 10602 10603 10605 10606 10607 10607 10607
10584 10583 10582 10581 10579 10578 10576 10575 10574 10573 10572 10571 10570 10570 10569 10568 10567 10566 10565 10564 10563 10562 10561 10561 10560 10560 10559 10559 10558 10557 10556 10555 10554 10554 10553 10554 10556 10556 10556 10556 10555 10555 10555 10554 10554 10554 10555 10555 10556 10558 10559 10561 10563 10565 10567 10570 10572 10572 10573 10575 10576 10578 10580 10582 10584 10583 10583 10584 10585 10588 10589 10588 10587 10589 10592 10595 10596 10595 10596 10599 10600 10601 10601 10602 10602
10576 10575 10574 10573 10571 10570 10569 10568 10567 10566 10565 10564 10562 10561 10560 10559 10559 10558 10557 10556 10555 10554 10553 10552 10552 10551 10550 10550 10549 10549 10548 10547 10547 10546 10545 10546 10547 10549 10549 10548 10548 10548 10548 10547 10547 10547 10548 10549 10550 10551 10552 10554 10556 10559 10561 10563 10564 10565 10566 10568 10569 10572 10574 10576 10577 10576 10576 10578 10579 10581 10583 10582 10582 10584 10586 10588 10590 10590 10593 10594 10594 10593 10595 10597 10597
10568 10567 10566 10565 10563 10562 10561 10561 10560 10559 10558 10556 10554 10553 10552 10551 10550 10550 10549 10548 10547 10546 10545 10544 10543 10542 10541 10541 10541 10540 10539 10539 10539 10538 10537 10537 10538 10540 10541 10541 10540 10540 10540 10540 10539 10540 10541 10542 10542 10544 10545 10546 10549 10552 10554 10557 10558 10558 10560 10562 10563 10566 10568 10569 10571 10571 10572 10573 10573 10575 10576 10576 10577 10579 10580 10582 10585 10586 10587 10588 10587 10587 10589 10591 10590
10560 10560 10559 10557 10555 10554 10553 10553 10552 10551 10550 10548 10546 10545 10543 10542 10542 10541 10541 10540 10539 10537 10536 10535 10534 10533 10532 10532 10531 10531 10531 10530 10530 10529 10529 10528 10529 10530 10532 10533 10532 10532 10532 10532 10532 10532 10533 10534 10535 10536 10538 10539 10541 10544 10547 10551 10552 10552 10555 10557 10558 10559 10561 10564 10565 10566 10567 10568 10569 10570 10571 10570 10571 10572 10574 10577 10581 10581 10581 10582 10581 10581 10584 10585 10585
10553 10552 10551 10549 10548 10547 10546 10545 10544 10542 10541 10540 10538 10536 10535 10533 10532 10532 10531 10530 10529 10528 10527 10526 10525 10524 10523 10522 10522 10521 10521 10521 10520 10520 10520 10519 10520 10521 10522 10524 10524 10524 10523 10524 10524 10524 10525 10527 10528 10529 10530 10532 10534 10537 10541 10544 10545 10546 10548 10551 10552 10553 10556 10558 10559 10559 10560 10562 10564 10565 10565 10565 10566 10567 10568 10571 10574 10575 10576 10577 10576 10576 10578 10578 10578
10547 10545 10544 10542 10541 10540 10539 10538 10536 10534 10533 10531 10530 10528 10526 10524 10522 10522 10521 10520 10519 10518 10517 10516 10515 10514 10514 10512 10511 10511 10511 10511 10510 10509 10509 10509 10510 10511 10512 10514 10515 10515 10514 10515 10515 10516 10517 10518 10520 10521 10522 10525 10527 10530 10533 10536 10538 10539 10541 10543 10545 10547 10550 10551 10551 10553 10553 10554 10556 10558 10558 10559 10562 10562 10562 10564 10567 10569 10570 10570 10570 10571 10572 10571 10571
10540 10538 10536 10535 10533 10532 10531 10530 10528 10526 10524 10522 10520 10519 10517 10515 10513 10511 10511 10510 10509 10508 10507 10506 10505 10504 10503 10502 10501 10501 10500 10500 10500 10499 10499 10499 10499 10500 10502 10503 10504 10505 10505 10505 10506 10507 10508 10510 10511 10512 10514 10517 10519 10522 10525 10528 10530 10531 10533 10535 10538 10541 10543 10543 10545 10547 10548 10548 10549 10548 10549 10553 10556 10557 10558 10559 10560 10561 10563 10564 10564 10565 10566 10564 10564
10532 10531 10529 10528 10526 10525 10523 10521 10519 10517 10515 10513 10511 10510 10508 10506 10504 10502 10500 10499 10498 10497 10496 10496 10494 10493 10491 10490 10489 10489 10489 10489 10488 10488 10488 10488 10489 10489 10490 10492 10493 10494 10495 10496 10496 10497 10499 10500 10502 10503 10505 10508 10510 10514 10517 10520 10522 10524 10525 10527 10531 10534 10535 10536 10538 10541 10542 10543 10543 10542 10542 10545 10548 10550 10552 10552 10552 10553 10556 10558 10557 10557 10558 10556 10557
10524 10523 10521 10520 10519 10517 10515 10513 10510 10508 10506 10504 10502 10500 10498 10496 10494 10492 10490 10488 10487 10485 10484 10484 10483 10482 10480 10478 10477 10476 10476 10476 10476 10476 10476 10476 10477 10478 10479 10480 10482 10483 10484 10485 10486 10487 10489 10490 10492 10494 10496 10498 10501 10504 10508 10511 10513 10516 10517 10520 10523 10526 10527 10528 10530 10533 10535 10537 10537 10537 10538 10538 10539 10541 10542 10544 10545 10546 10549 10552 10550 10548 10549 10549 10549
10516 10515 10513 10512 10510 10508 10506 10504 10502 10499 10497 10495 10493 10491 10489 10486 10484 10482 10480 10478 10476 10474 10472 10471 10470 10469 10468 10466 10464 10463 10463 10463 10463 10463 10463 10463 10464 10465 10467 10468 10470 10471 10473 10474 10475 10476 10478 10480 10482 10484 10486 10488 10490 10494 10497 10501 10504 10506 10509 10512 10515 10518 10519 10520 10522 10525 10527 10529 10530 10531 10532 10532 10532 10532 10532 10535 10537 10538 10540 10544 10544 10542 10542 10542 10543
10509 10507 10505 10503 10502 10500 10498 10495 10493 10491 10488 10486 10484 10481 10479 10476 10474 10472 10470 10468 10465 10463 10461 10459 10457 10456 10455 10454 10452 10450 10449 10448 10448 10448 10449 10449 10450 10451 10453 10455 10457 10459 10461 10463 10464 10465 10467 10469 10471 10473 10475 10478 10480 10483 10487 10491 10494 10496 10500 10504 10506 10509 10511 10512 10514 10516 10518 10520 10523 10524 10524 10525 10525 10525 10525 10526 10528 10530 10533 10534 10534 10535 10537 10537 10536
10501 10499 10497 10495 10493 10491 10489 10486 10484 10481 10479 10476 10474 10471 10468 10466 10463 10461 10459 10457 10454 10451 10449 10447 10445 10444 10442 10441 10438 10436 10434 10434 10433 10433 10433 10434 10435 10437 10438 10441 10443 10446 10448 10450 10452 10454 10456 10458 10460 10462 10464 10467 10470 10473 10476 10480 10484 10486 10490 10494 10497 10499 10502 10504 10507 10508 10509 10511 10514 10515 10516 10517 10517 10517 10519 10519 10519 10521 10525 10526 10525 10527 10530 10530 10530
10494 10492 10489 10487 10484 10482 10479 10477 10474 10471 10469 10466 10463 10460 10457 10454 10451 10449 10447 10445 10442 10439 10436 10434 10432 10430 10429 10427 10425 10421 10419 10418 10418 10417 10417 10417 10418 10420 10422 10425 10427 10431 10434 10436 10439 10441 10444 10446 10449 10451 10453 10456 10459 10462 10465 10469 10473 10475 10480 10485 10487 10489 10493 10496 10497 10499 10500 10502 10504 10506 10508 10508 10507 10510 10512 10510 10509 10513 10517 10518 10518 10518 10520 10522 10523
10485 10483 10481 10478 10476 10473 10470 10468 10465 10461 10458 10455 10452 10449 10446 10442 10439 10437 10434 10432 10428 10425 10422 10419 10417 10415 10414 10412 10410 10407 10403 10401 10401 10401 10401 10401 10401 10403 10406 10408 10411 10414 10418 10422 10425 10428 10431 10434 10437 10439 10442 10445 10448 10451 10454 10458 10462 10465 10469 10474 10477 10480 10483 10486 10488 10490 10491 10493 10494 10497 10499 10498 10498 10502 10503 10498 10498 10504 10509 10509 10508 10509 10512 10514 10514
10477 10475 10473 10470 10467 10464 10461 10458 10455 10451 10448 10444 10441 10438 10434 10430 10427 10424 10421 10418 10414 10411 10407 10404 10401 10399 10397 10396 10394 10392 10389 10385 10384 10384 10384 10385 10385 10386 10388 10391 10394 10397 10402 10406 10410 10413 10417 10420 10423 10427 10430 10433 10436 10440 10443 10446 10450 10454 10458 10462 10466 10470 10473 10476 10479 10481 10482 10484 10485 10488 10489 10489 10490 10493 10493 10491 10492 10496 10498 10498 10497 10499 10504 10507 10506
10469 10466 10464 10461 10458 10455 10451 10448 10445 10441 10438 10434 10430 10427 10423 10419 10415 10412 10409 10405 10401 10397 10393 10390 10386 10383 10381 10379 10377 10376 10374 10371 10369 10367 10368 10368 10369 10370 10372 10374 10377 10380 10384 10389 10394 10398 10402 10406 10410 10413 10417 10420 10424 10428 10432 10435 10439 10442 10446 10451 10455 10459 10462 10466 10469 10471 10473 10475 10477 10478 10480 10481 10481 10482 10483 10485 10487 10487 10487 10487 10486 10489 10494 10497 10498
10460 10457 10455 10452 10449 10446 10442 10438 10435 10431 10427 10423 10419 10416 10413 10409 10404 10401 10397 10393 10388 10384 10380 10377 10373 10370 10367 10364 10362 10360 10359 10358 10356 10354 10352 10352 10354 10355 10356 10358 10361 10364 10368 10372 10377 10383 10387 10391 10395 10399 10404 10408 10411 10415 10420 10424 10427 10431 10435 10439 10443 10447 10451 10455 10458 10461 10463 10465 10468 10470 10471 10472 10473 10473 10473 10476 10479 10479 10477 10478 10478 10480 10483 10485 10487
10451 10448 10445 10442 10439 10436 10432 10428 10424 10420 10416 10412 10408 10405 10402 10398 10393 10389 10385 10381 10377 10373 10369 10365 10361 10358 10355 10352 10348 10346 10344 10343 10342 10341 10339 10338 10339 10341 10342 10343 10346 10349 10353 10356 10361 10366 10371 10376 10381 10385 10390 10394 10398 10403 10407 10411 10415 10419 10423 10427 10431 10435 10439 10443 10447 10451 10453 10455 10458 10460 10462 10463 10464 10464 10465 10466 10468 10469 10470 10471 10471 10471 10472 10474 10476
10443 10440 10436 10433 10429 10425 10422 10418 10413 10409 10404 10400 10397 10394 10391 10386 10382 10377 10373 10370 10366 10362 10358 10354 10350 10347 10344 10341 10338 10335 10332 10330 10329 10328 10327 10326 10326 10327 10328 10330 10332 10334 10338 10341 10345 10350 10355 10361 10366 10371 10375 10380 10385 10390 10394 10399 10403 10408 10412 10415 10419 10423 10427 10431 10436 10439 10441 10444 10446 10449 10452 10453 10454 10455 10455 10456 10457 10459 10461 10463 10462 10462 10463 10465 10466
10434 10431 10427 10423 10419 10415 10411 10408 10404 10399 10394 10390 10387 10384 10381 10376 10372 10367 10363 10359 10355 10352 10349 10345 10340 10336 10333 10330 10327 10325 10322 10319 10317 10316 10314 10314 10314 10314 10315 10317 10320 10321 10323 10327 10331 10335 10340 10345 10351 10356 10361 10366 10371 10376 10381 10386 10391 10395 10400 10403 10407 10412 10416 10419 10423 10427 10430 10433 10436 10439 10441 10443 10444 10445 10445 10446 10447 10448 10451 10453 10453 10453 10454 10455 10456
10425 10422 10418 10415 10410 10406 10402 10398 10394 10390 10386 10381 10378 10375 10371 10367 10363 10358 10355 10351 10346 10343 10339 10336 10332 10328 10324 10319 10316 10314 10312 10309 10307 10305 10303 10303 10303 10302 10302 10305 10308 10309 10310 10313 10317 10321 10326 10331 10336 10342 10347 10352 10357 10363 10368 10372 10377 10382 10387 10392 10396 10400 10404 10408 10411 10415 10419 10422 10425 10428 10430 10432 10434 10435 10436 10436 10437 10438 10440 10441 10442 10443 10445 10447 10449
10417 10414 10410 10406 10402 10398 10393 10389 10385 10381 10377 10373 10370 10366 10363 10359 10355 10350 10347 10343 10338 10334 10331 10327 10323 10320 10316 10312 10308 10304 10302 10299 10297 10295 10293 10292 10292 10291 10292 10294 10297 10298 10299 10301 10304 10308 10313 10317 10322 10327 10333 10338 10344 10349 10354 10359 10364 10370 10375 10380 10384 10389 10392 10396 10399 10403 10407 10411 10414 10416 10419 10421 10423 10424 10426 10427 10427 10427 10427 10427 10429 10434 10438 10440 10442
10407 10404 10401 10398 10394 10390 10386 10381 10377 10373 10369 10366 10363 10359 10356 10352 10348 10344 10340 10335 10331 10327 10323 10319 10315 10310 10307 10304 10300 10297 10294 10291 10287 10285 10283 10282 10282 10282 10282 10284 10286 10287 10288 10290 10293 10296 10300 10305 10309 10314 10319 10325 10331 10336 10341 10346 10351 10356 10362 10367 10372 10376 10380 10384 10388 10391 10395 10399 10402 10404 10407 10409 10411 10412 10414 10415 10416 10417 10416 10416 10419 10425 10430 10432 10433
10398 10395 10392 10389 10386 10382 10379 10375 10371 10367 10363 10359 10356 10353 10349 10346 10341 10337 10333 10329 10324 10320 10316 10312 10307 10303 10298 10294 10291 10289 10286 10284 10280 10277 10274 10273 10272 10273 10274 10274 10275 10276 10278 10280 10282 10285 10289 10293 10298 10302 10307 10312 10318 10323 10328 10333 10338 10343 10349 10354 10359 10364 10368 10372 10376 10379 10383 10387 10391 10393 10395 10396 10399 10401 10402 10404 10406 10407 10408 10409 10411 10415 10418 10421 10424
10390 10386 10383 10380 10378 10375 10371 10368 10364 10361 10357 10354 10350 10347 10343 10340 10335 10331 10326 10322 10317 10313 10309 10305 10301 10296 10292 10287 10283 10280 10277 10275 10273 10270 10267 10265 10264 10264 10265 10266 10265 10266 10268 10271 10273 10275 10278 10282 10286 10290 10295 10300 10305 10310 10315 10320 10325 10330 10335 10341 10346 10351 10356 10360 10364 10368 10371 10375 10380 10383 10383 10384 10386 10390 10393 10395 10397 10398 10399 10400 10403 10405 10407 10410 10413
10382 10379 10376 10373 10370 10367 10364 10361 10358 10355 10352 10348 10345 10341 10337 10333 10329 10324 10320 10316 10311 10307 10303 10299 10294 10290 10286 10281 10277 10274 10270 10266 10264 10263 10260 10257 10256 10256 10257 10258 10257 10257 10259 10261 10264 10266 10268 10271 10275 10279 10283 10287 10292 10297 10302 10307 10312 10317 10322 10327 10333 10338 10343 10347 10352 10356 10360 10363 10367 10371 10373 10372 10374 10378 10382 10384 10386 10387 10388 10390 10392 10394 10396 10399 10401
10375 10372 10369 10367 10364 10362 10359 10355 10352 10349 10346 10343 10339 10335 10331 10327 10323 10318 10314 10310 10306 10301 10297 10293 10288 10284 10281 10276 10271 10268 10265 10260 10257 10255 10253 10251 10249 10248 10248 10249 10250 10249 10250 10252 10255 10257 10259 10261 10264 10267 10271 10276 10280 10285 10290 10295 10300 10304 10309 10314 10319 10325 10330 10335 10340 10345 10348 10351 10355 10359 10361 10361 10363 10366 10370 10373 10375 10377 10379 10380 10381 10383 10385 10387 10389
10369 10366 10364 10362 10359 10357 10354 10351 10347 10344 10341 10337 10333 10329 10326 10322 10318 10313 10309 10305 10300 10296 10293 10288 10283 10278 10275 10271 10266 10263 10260 10256 10251 10248 10246 10244 10243 10241 10241 10241 10242 10242 10242 10243 10246 10248 10250 10252 10255 10258 10261 10265 10269 10274 10279 10284 10288 10293 10297 10302 10306 10312 10317 10322 10327 10332 10336 10340 10343 10346 10350 10351 10353 10355 10358 10361 10364 10367 10369 10370 10371 10372 10374 10376 10377
10363 10361 10359 10357 10354 10352 10349 10347 10343 10339 10336 10333 10329 10325 10321 10317 10313 10308 10304 10299 10295 10291 10287 10284 10280 10275 10271 10267 10263 10258 10254 10252 10247 10243 10241 10238 10236 10235 10234 10234 10235 10235 10236 10236 10238 10240 10241 10243 10246 10249 10252 10256 10260 10264 10268 10272 10277 10282 10286 10290 10294 10299 10304 10310 10315 10319 10324 10328 10331 10334 10338 10341 10343 10345 10347 10350 10353 10357 10359 10360 10361 10362 10363 10364 10365
10359 10357 10354 10352 10350 10348 10345 10342 10339 10336 10332 10329 10325 10320 10316 10312 10308 10303 10299 10294 10290 10285 10281 10278 10275 10271 10266 10262 10258 10253 10249 10246 10243 10240 10236 10233 10231 10229 10228 10228 10228 10228 10229 10230 10230 10232 10233 10235 10238 10241 10243 10246 10249 10253 10256 10260 10265 10270 10274 10279 10283 10287 10292 10297 10302 10307 10311 10315 10319 10322 10325 10328 10331 10334 10337 10339 10342 10345 10347 10349 10351 10352 10353 10354 10355
10354 10352 10350 10347 10345 10343 10340 10338 10335 10332 10328 10324 10320 10316 10312 10308 10304 10299 10295 10290 10286 10282 10277 10273 10270 10266 10262 10257 10254 10249 10245 10241 10238 10235 10232 10230 10227 10225 10223 10222 10222 10222 10222 10223 10224 10225 10226 10228 10230 10232 10235 10237 10240 10243 10246 10250 10254 10258 10263 10267 10272 10276 10280 10284 10289 10294 10298 10302 10306 10309 10312 10315 10318 10322 10325 10328 10331 10333 10335 10337 10339 10340 10342 10343 10345
10349 10348 10346 10343 10341 10339 10337 10334 10331 10328 10325 10321 10317 10312 10308 10304 10300 10296 10292 10287 10283 10278 10273 10268 10265 10261 10258 10253 10249 10246 10241 10237 10233 10230 10228 10225 10223 10221 10219 10217 10217 10216 10217 10217 10217 10218 10219 10220 10222 10224 10227 10229 10232 10234 10237 10240 10244 10248 10252 10257 10261 10266 10269 10273 10277 10281 10286 10290 10294 10297 10300 10303 10306 10309 10313 10316 10319 10322 10323 10325 10327 10328 10330 10332 10334
10346 10344 10342 10340 10338 10335 10333 10330 10327 10324 10321 10318 10315 10311 10306 10301 10297 10293 10289 10284 10280 10275 10270 10265 10260 10256 10254 10250 10245 10241 10238 10234 10229 10226 10223 10221 10219 10217 10215 10213 10211 10211 10211 10211 10211 10212 10213 10214 10215 10217 10219 10221 10224 10226 10228 10231 10235 10239 10242 10246 10251 10255 10259 10262 10265 10269 10273 10278 10282 10285 10289 10292 10295 10298 10301 10304 10307 10309 10311 10313 10315 10317 10318 10321 10323
10342 10340 10339 10337 10334 10332 10329 10326 10323 10321 10318 10315 10312 10308 10304 10299 10294 10289 10285 10281 10276 10271 10267 10262 10257 10253 10250 10247 10243 10238 10234 10231 10227 10223 10219 10217 10215 10213 10211 10209 10207 10206 10206 10206 10206 10206 10207 10207 10208 10209 10211 10214 10216 10218 10220 10223 10226 10229 10232 10236 10240 10243 10247 10251 10254 10258 10262 10265 10269 10272 10276 10280 10283 10286 10289 10292 10294 10296 10299 10302 10304 10306 10307 10309 10311
10338 10337 10335 10333 10331 10328 10326 10323 10320 10317 10315 10311 10308 10304 10301 10297 10292 10287 10282 10277 10273 10269 10264 10260 10255 10250 10246 10243 10240 10235 10231 10228 10225 10221 10216 10213 10211 10209 10207 10205 10204 10202 10201 10200 10200 10200 10201 10201 10202 10203 10204 10206 10208 10210 10212 10214 10217 10220 10223 10226 10229 10233 10236 10239 10243 10247 10250 10253 10257 10260 10264 10267 10271 10274 10277 10280 10282 10285 10287 10290 10292 10294 10296 10298 10299
10334 10333 10332 10330 10327 10325 10323 10320 10318 10315 10312 10309 10305 10301 10297 10293 10289 10285 10280 10275 10270 10266 10262 10257 10253 10248 10243 10239 10236 10233 10229 10224 10221 10218 10215 10211 10208 10206 10204 10202 10200 10198 10197 10196 10195 10195 10195 10195 10196 10197 10198 10199 10201 10202 10204 10206 10208 10211 10213 10216 10219 10222 10225 10228 10232 10235 10238 10242 10245 10249 10252 10256 10259 10262 10265 10267 10270 10273 10275 10278 10280 10282 10284 10285 10286
10330 10329 10328 10326 10323 10321 10319 10317 10315 10312 10309 10306 10303 10299 10295 10291 10286 10282 10277 10273 10268 10263 10259 10254 10250 10246 10241 10236 10233 10229 10226 10222 10218 10215 10212 10209 10205 10202 10200 10199 10197 10195 10193 10192 10190 10190 10190 10190 10190 10190 10191 10193 10194 10195 10196 10198 10200 10202 10204 10207 10210 10212 10215 10218 10221 10224 10227 10230 10234 10237 10241 10244 10247 10250 10252 10255 10258 10261 10263 10265 10267 10269 10271 10273 10274
10327 10325 10323 10322 10320 10318 10316 10314 10311 10309 10306 10303 10300 10297 10293 10289 10284 10280 10275 10271 10266 10261 10257 10252 10247 10243 10239 10234 10230 10226 10223 10219 10215 10211 10209 10206 10203 10200 10197 10195 10193 10192 10190 10188 10187 10185 10185 10185 10185 10185 10185 10186 10187 10188 10189 10190 10192 10194 10196 10198 10200 10203 10205 10207 10210 10213 10216 10219 10222 10225 10229 10232 10235 10238 10240 10243 10246 10249 10251 10252 10254 10256 10259 10260 10262
10323 10321 10319 10318 10316 10314 10312 10310 10308 10305 10302 10300 10297 10294 10291 10287 10283 10278 10274 10269 10265 10260 10255 10251 10246 10241 10236 10232 10228 10224 10220 10216 10213 10209 10206 10203 10200 10198 10195 10192 10190 10188 10186 10185 10184 10182 10181 10180 10180 10180 10180 10180 10181 10182 10182 10183 10184 10186 10187 10189 10191 10193 10195 10198 10200 10203 10206 10208 10211 10214 10217 10220 10223 10226 10228 10231 10234 10237 10239 10240 10242 10244 10246 10247 10249
10319 10317 10315 10314 10312 10311 10309 10307 10304 10302 10299 10296 10294 10290 10287 10284 10280 10277 10272 10268 10263 10258 10254 10249 10244 10240 10235 10230 10225 10222 10218 10214 10211 10207 10204 10200 10198 10195 10193 10190 10188 10185 10183 10181 10180 10179 10177 10176 10175 10175 10175 10175 10175 10175 10176 10177 10178 10179 10180 10181 10183 10184 10186 10188 10191 10193 10196 10199 10201 10203 10205 10208 10211 10213 10216 10218 10221 10223 10225 10227 10229 10231 10233 10234 10235
10315 10313 10311 10310 10308 10307 10305 10303 10301 10298 10296 10293 10290 10287 10284 10280 10277 10273 10270 10266 10261 10256 10251 10247 10242 10238 10233 10229 10224 10220 10216 10212 10208 10204 10201 10198 10195 10192 10189 10187 10185 10183 10180 10178 10176 10175 10174 10173 10171 10170 10170 10170 10170 10170 10170 10170 10171 10172 10173 10174 10175 10176 10177 10179 10181 10184 10186 10189 10191 10192 10194 10197 10199 10201 10204 10206 10208 10210 10212 10214 10216 10218 10219 10220 10221
10311 10310 10308 10306 10304 10303 10301 10299 10296 10294 10291 10288 10286 10283 10280 10277 10274 10270 10267 10263 10258 10253 10248 10244 10239 10235 10231 10227 10222 10218 10213 10210 10206 10202 10199 10196 10193 10189 10186 10183 10181 10179 10177 10175 10173 10171 10170 10169 10168 10166 10166 10165 10165 10164 10164 10164 10164 10165 10165 10166 10167 10168 10169 10170 10172 10174 10176 10178 10180 10182 10183 10185 10188 10190 10192 10194 10196 10198 10200 10201 10203 10204 10205 10207 10208
10307 10306 10304 10303 10301 10299 10297 10295 10292 10290 10287 10284 10281 10278 10275 10273 10270 10267 10264 10260 10256 10251 10246 10241 10236 10232 10228 10224 10220 10216 10211 10208 10204 10200 10196 10193 10191 10188 10184 10181 10178 10176 10174 10172 10170 10168 10166 10165 10164 10162 10161 10161 10160 10159 10159 10159 10159 10159 10159 10159 10160 10160 10161 10162 10163 10165 10166 10168 10170 10171 10173 10174 10176 10179 10181 10182 10184 10186 10188 10189 10190 10190 10191 10193 10195
10302 10301 10300 10299 10297 10295 10294 10291 10289 10286 10283 10280 10277 10274 10271 10268 10265 10262 10259 10256 10252 10248 10243 10238 10234 10229 10225 10221 10217 10214 10210 10207 10203 10199 10195 10191 10188 10186 10183 10180 10176 10173 10171 10169 10167 10165 10163 10161 10160 10158 10157 10156 10155 10154 10154 10153 10153 10153 10153 10153 10153 10153 10153 10153 10154 10155 10156 10158 10160 10161 10163 10164 10166 10167 10169 10171 10172 10174 10176 10177 10177 10177 10178 10180 10182